Saint Johnsbury, VT

10:56 AM EST on February 20, 2017 (GMT -0500)
St. Johnsbury

Weather History for K1V4 - October, 2012

Change the Weather History Date:

Thursday, October 25, 2012

  Actual Average Record
Temperature  
Mean Temperature 48 °F 44 °F  
Max Temperature 63 °F 54 °F 79 °F (1963)
Min Temperature 33 °F 34 °F 16 °F (1947)
Degree Days  
Heating Degree Days 17 21  
Month to date heating degree days 391 419  
Since 1 July heating degree days 673 653  
Cooling Degree Days 0 0  
Month to date cooling degree days 0 0  
Year to date cooling degree days 377 432  
Moisture  
Dew Point 35 °F    
Average Humidity 60    
Maximum Humidity 96    
Minimum Humidity 23    
Precipitation  
Precipitation 0.00 in 0.12 in 1.57 in (2008)
Month to date precipitation 1.86 3.15  
Year to date precipitation 28.83 32.30  
Sea Level Pressure  
Sea Level Pressure 30.23 in    
Wind  
Wind Speed - (North)    
Max Wind Speed -    
Max Gust Speed -    
T = Trace of Precipitation, MM = Missing Value Source: NWS Daily Summary

Daily Weather History Graph

Daily Weather History Graph

Search for Another Location

Airport or City:

Trip Planner

Search our weather history database for the weather conditions in past years. The results will help you decide how hot, cold, wet, or windy it might be!

Date:

Astronomy

Oct. 25, 2012 Rise Set
Actual Time 7:16 AM EDT 5:46 PM EDT
Civil Twilight 6:46 AM EDT 6:16 PM EDT
Nautical Twilight 6:12 AM EDT 6:50 PM EDT
Astronomical Twilight 5:39 AM EDT 7:24 PM EDT
Moon 3:38 PM EDT (10/25) 3:01 AM EDT (10/25)
Length of Visible Light 11h 29m
Length of Day
10h 30m
Waxing Gibbous, 84% of the Moon is Illuminated
Oct 25
Waxing Gibbous
Oct 29
Full
Nov 6
Last Quarter
Nov 13
New
Nov 20
First Quarter

Hourly Weather History & Observations

Time (EDT) Temp. Dew Point Humidity Pressure Visibility Wind Dir Wind Speed Gust Speed Precip Events Conditions
12:54 AM 43.0 °F 35.1 °F 74% 30.23 in - North - - N/A   Unknown
1:54 AM 42.1 °F 35.1 °F 76% 30.23 in - North - - N/A   Unknown
2:54 AM 42.1 °F 36.0 °F 79% 30.23 in - North - - N/A   Unknown
3:54 AM 39.0 °F 35.1 °F 86% 30.23 in - North - - N/A   Unknown
4:54 AM 37.0 °F 34.0 °F 89% 30.24 in - North - - N/A   Unknown
5:54 AM 35.1 °F 32.0 °F 89% 30.25 in - North - - N/A   Unknown
6:54 AM 34.0 °F 32.0 °F 92% 30.27 in - North - - N/A   Unknown
7:54 AM 33.1 °F 32.0 °F 96% 30.28 in - North - - N/A   Unknown
8:54 AM 36.0 °F 32.0 °F 86% 30.29 in - North - - N/A   Unknown
9:54 AM 42.1 °F 33.1 °F 70% 30.30 in - North - - N/A   Unknown
10:54 AM 48.9 °F 32.0 °F 52% 30.28 in - North - - N/A   Unknown
11:54 AM 55.0 °F 33.1 °F 43% 30.25 in - North - - N/A   Unknown
12:54 PM 60.1 °F 23.0 °F 24% 30.22 in - North - - N/A   Unknown
1:54 PM 61.0 °F 28.0 °F 29% 30.20 in - North - - N/A   Unknown
2:54 PM 63.0 °F 33.1 °F 33% 30.18 in - North - - N/A   Unknown
3:54 PM 63.0 °F 34.0 °F 34% 30.19 in - North - - N/A   Unknown
4:54 PM 61.0 °F 37.9 °F 42% 30.19 in - North - - N/A   Unknown
5:54 PM 60.1 °F 39.9 °F 47% 30.19 in - North - - N/A   Unknown
6:54 PM 57.0 °F 39.0 °F 51% 30.21 in - North - - N/A   Unknown
7:54 PM 53.1 °F 41.0 °F 64% 30.21 in - North - - N/A   Unknown
8:54 PM 50.0 °F 41.0 °F 71% 30.22 in - North - - N/A   Unknown
9:54 PM 48.0 °F 39.9 °F 74% 30.22 in - North - - N/A   Unknown
10:54 PM 46.0 °F 39.9 °F 79% 30.22 in - North - - N/A   Unknown
11:54 PM 44.1 °F 39.9 °F 85% 30.22 in - North - - N/A   Unknown